Puebla, Mexico

5:52 PM CDT on August 18, 2017 (GMT -0500)
Hermanos Serdan International

Weather History for MMPB - November, 2011

Change the Weather History Date:

Wednesday, November 23, 2011

  Actual Average Record
Temperature  
Mean Temperature 61 °F -  
Max Temperature 75 °F 67 °F 78 °F (2010)
Min Temperature 47 °F 43 °F 30 °F (2002)
Degree Days  
Heating Degree Days 4    
Growing Degree Days 11 (Base 50)    
Moisture  
Dew Point 46 °F    
Average Humidity 56    
Maximum Humidity 81    
Minimum Humidity 20    
Precipitation  
Precipitation 0.00 in - - ()
Sea Level Pressure  
Sea Level Pressure 30.28 in    
Wind  
Wind Speed 6 mph ()    
Max Wind Speed 21 mph    
Max Gust Speed -    
Visibility 7.9 miles    
Events      
Averages and records for this station are not official NWS values.
T = Trace of Precipitation, MM = Missing Value Source: Averaged Metar Reports

Daily Weather History Graph

Daily Weather History Graph

Search for Another Location

Airport or City:

Trip Planner

Search our weather history database for the weather conditions in past years. The results will help you decide how hot, cold, wet, or windy it might be!

Date:

Astronomy

Nov. 23, 2011 Rise Set
Actual Time 6:44 AM CST 5:53 PM CST
Civil Twilight 6:21 AM CST 6:16 PM CST
Nautical Twilight 5:54 AM CST 6:43 PM CST
Astronomical Twilight 5:28 AM CST 7:10 PM CST
Moon 4:56 AM CST (11/23) 4:33 PM CST (11/23)
Length of Visible Light 11h 55m
Length of Day
11h 08m
Waning Crescent, 3% of the Moon is Illuminated
Nov 23
Waning Crescent
Nov 25
New
Dec 2
First Quarter
Dec 10
Full
Dec 17
Last Quarter

Hourly Weather History & Observations

Time (CST) Temp. Windchill Dew Point Humidity Pressure Visibility Wind Dir Wind Speed Gust Speed Precip Events Conditions
5:58 AM 47 °F - 43 °F 81% 29.98 in 3 mi Calm Calm - -  
6:19 AM 46.4 °F 42.9 °F 41.0 °F 81% 30.43 in 7.0 mi NW 6.9 mph - N/A   Clear
6:46 AM 46.4 °F 41.9 °F 41.0 °F 81% 30.44 in 8.0 mi NNW 9.2 mph - N/A   Clear
7:43 AM 53.6 °F - 44.6 °F 72% 30.46 in 8.0 mi NNW 9.2 mph - N/A   Clear
8:48 AM 60.8 °F - 46.4 °F 59% 30.47 in 8.0 mi NNW 13.8 mph - N/A   Clear
8:50 AM 58 °F - 50 °F 66% 30.09 in 3 mi Calm Calm - -   Haze
9:40 AM 66.2 °F - 46.4 °F 49% 30.48 in 8.0 mi North 11.5 mph - N/A   Clear
10:42 AM 69.8 °F - 44.6 °F 40% 30.46 in 9.0 mi NW 10.4 mph - N/A   Partly Cloudy
11:41 AM 71.6 °F - 44.6 °F 38% 30.44 in 10.0 mi NNE 12.7 mph - N/A   Scattered Clouds
11:45 AM 73 °F - 44 °F 24% 30.04 in 3 mi North 2.2 mph - -   Haze
12:46 PM 71.6 °F - 46.4 °F 41% 30.41 in 10.0 mi NE 5.8 mph - N/A   Scattered Clouds
1:45 PM 75.2 °F - 44.6 °F 34% 30.37 in 10.0 mi ENE 4.6 mph - N/A   Scattered Clouds
2:40 PM 75 °F - 42 °F 20% 29.88 in 12 mi East 2.2 mph - -   Partly Cloudy
2:49 PM 69.8 °F - 48.2 °F 46% 30.36 in 9.0 mi ENE 6.9 mph - N/A   Mostly Cloudy
3:42 PM 71.6 °F - 48.2 °F 43% 30.36 in 9.0 mi NNE 12.7 mph - N/A   Scattered Clouds
4:45 PM 66.2 °F - 48.2 °F 52% 30.36 in 9.0 mi NE 20.7 mph - N/A   Scattered Clouds
5:40 PM 67 °F - 46 °F 35% 29.81 in 12 mi North 2.2 mph - -   Mostly Cloudy
5:49 PM 62.6 °F - 48.2 °F 59% 30.37 in 9.0 mi North 11.5 mph - N/A   Scattered Clouds
6:42 PM 57.2 °F - 48.2 °F 72% 30.40 in 9.0 mi North 11.5 mph - N/A   Mostly Cloudy
7:41 PM 57.2 °F - 48.2 °F 72% 30.43 in 9.0 mi North 6.9 mph - N/A   Scattered Clouds
8:42 PM 55.4 °F - 48.2 °F 77% 30.46 in 9.0 mi North 5.8 mph - N/A   Scattered Clouds
8:45 PM 59 °F - 49 °F 60% 29.89 in 3 mi Calm Calm - -   Scattered Clouds
9:41 PM 55.4 °F - 48.2 °F 77% 30.47 in 9.0 mi NNW 11.5 mph - N/A   Scattered Clouds
11:45 PM 56 °F - 50 °F 75% 29.96 in 3 mi Calm Calm - -   Scattered Clouds